E22ZMG-1 Weather Reports


Display with metric or nautical units.
time (UTC)temp
F
wind
direction
speed
MPH
gust
MPH
rain 1hr
in
rain 24hr
in
rain mn
in
humidity
%
barometer
mb
20260504040707 104 0 0.0 0.0 0.00 0.00 0.00 31 976.0
20260504035640 104 0 0.0 0.0 0.00 0.00 0.00 30 976.0
20260504034615 104 0 0.0 0.0 0.00 0.00 0.00 31 976.0
20260504033628 103 0 0.0 0.0 0.00 0.00 0.00 32 976.0
20260504032524 103 0 0.0 0.0 0.00 0.00 0.00 32 976.0
20260504031458 102 0 0.0 0.0 0.00 0.00 0.00 33 976.0
20260504030433 101 0 0.0 0.0 0.00 0.00 0.00 35 976.0
20260504025407 100 0 0.0 0.0 0.00 0.00 0.00 36 977.0
20260504024343 98 0 0.0 0.0 0.00 0.00 0.00 37 977.0
20260504023318 98 0 0.0 0.0 0.00 0.00 0.00 37 977.0
20260504022252 97 0 0.0 0.0 0.00 0.00 0.00 39 977.0
20260504021226 95 0 0.0 0.0 0.00 0.00 0.00 41 977.0
20260504020201 96 0 0.0 0.0 0.00 0.00 0.00 41 977.0
20260504015136 95 0 0.0 0.0 0.00 0.00 0.00 42 977.0
20260504014110 93 0 0.0 0.0 0.00 0.00 0.00 44 977.0
20260504013045 92 0 0.0 0.0 0.00 0.00 0.00 45 977.0
20260504012018 90 0 0.0 0.0 0.00 0.00 0.00 48 977.0
20260504010953 91 0 0.0 0.0 0.00 0.00 0.00 47 976.0
20260504005929 90 0 0.0 0.0 0.00 0.00 0.00 47 976.0
20260504004904 90 0 0.0 0.0 0.00 0.00 0.00 46 976.0
20260504003839 90 0 0.0 0.0 0.00 0.00 0.00 48 976.0
20260504002815 89 0 0.0 0.0 0.00 0.00 0.00 49 976.0
20260504001750 90 0 0.0 0.0 0.00 0.00 0.00 47 976.0
20260504000725 89 0 0.0 0.0 0.00 0.00 0.00 48 976.0
20260503235659 89 0 0.0 0.0 0.00 0.00 0.00 50 976.0
20260503234633 88 0 0.0 0.0 0.00 0.00 0.00 50 976.0
20260503233608 87 0 0.0 0.0 0.00 0.00 0.00 52 976.0
20260503232543 88 0 0.0 0.0 0.00 0.00 0.00 50 975.0
20260503231518 87 0 0.0 0.0 0.00 0.00 0.00 51 975.0
20260503230453 88 0 0.0 0.0 0.00 0.00 0.00 50 975.0
20260503225427 90 0 0.0 0.0 0.00 0.00 0.00 48 975.0
20260503224401 90 0 0.0 0.0 0.00 0.00 0.00 49 975.0
20260503223337 90 0 0.0 0.0 0.00 0.00 0.00 49 975.0
20260503222310 89 0 0.0 0.0 0.00 0.00 0.00 51 975.0
20260503221245 89 0 0.0 0.0 0.00 0.00 0.00 51 975.0
20260503220220 90 0 0.0 0.0 0.00 0.00 0.00 50 975.0
20260503215154 90 0 0.0 0.0 0.00 0.00 0.00 50 974.0
20260503214128 91 0 0.0 0.0 0.00 0.00 0.00 49 974.0
20260503213102 90 0 0.0 0.0 0.00 0.00 0.00 50 974.0
20260503212038 92 0 0.0 0.0 0.00 0.00 0.00 48 974.0
20260503211012 92 0 0.0 0.0 0.00 0.00 0.00 48 974.0
20260503205947 92 0 0.0 0.0 0.00 0.00 0.00 48 974.0
20260503204920 92 0 0.0 0.0 0.00 0.00 0.00 48 974.0
20260503203855 92 0 0.0 0.0 0.00 0.00 0.00 49 974.0
20260503202829 93 0 0.0 0.0 0.00 0.00 0.00 48 974.0
20260503201804 93 0 0.0 0.0 0.00 0.00 0.00 49 974.0
20260503200738 92 0 0.0 0.0 0.00 0.00 0.00 49 974.0
20260503195712 93 0 0.0 0.0 0.00 0.00 0.00 47 974.0
20260503194646 93 0 0.0 0.0 0.00 0.00 0.00 47 974.0
20260503193620 92 0 0.0 0.0 0.00 0.00 0.00 46 974.0
20260503192554 93 0 0.0 0.0 0.00 0.00 0.00 45 974.0
20260503191529 94 0 0.0 0.0 0.00 0.00 0.00 45 974.0
20260503190503 93 0 0.0 0.0 0.00 0.00 0.00 45 974.0
20260503185437 94 0 0.0 0.0 0.00 0.00 0.00 45 974.0
20260503184412 94 0 0.0 0.0 0.00 0.00 0.00 46 974.0
20260503183347 95 0 0.0 0.0 0.00 0.00 0.00 45 974.0
20260503182320 94 0 0.0 0.0 0.00 0.00 0.00 46 974.0
20260503181256 94 0 0.0 0.0 0.00 0.00 0.00 45 974.0
20260503180230 95 0 0.0 0.0 0.00 0.00 0.00 44 974.0
20260503175203 95 0 0.0 0.0 0.00 0.00 0.00 43 974.0
20260503174137 95 0 0.0 0.0 0.00 0.00 0.00 44 974.0
20260503173111 95 0 0.0 0.0 0.00 0.00 0.00 43 974.0
20260503172045 96 0 0.0 0.0 0.00 0.00 0.00 43 974.0
20260503171019 96 0 0.0 0.0 0.00 0.00 0.00 42 974.0
20260503150605 97 0 0.0 0.0 0.00 0.00 0.00 42 974.0
20260503131125 100 0 0.0 0.0 0.00 0.00 0.00 37 972.0
20260503110612 104 0 0.0 0.0 0.00 0.00 0.00 32 970.0
20260503100115 104 0 0.0 0.0 0.00 0.00 0.00 32 970.0
20260503081133 107 0 0.0 0.0 0.00 0.00 0.00 26 971.0
20260503080107 110 0 0.0 0.0 0.00 0.00 0.00 26 971.0
20260503071921 108 0 0.0 0.0 0.00 0.00 0.00 28 972.0
20260503070854 107 0 0.0 0.0 0.00 0.00 0.00 28 972.0
20260503054515 105 0 0.0 0.0 0.00 0.00 0.00 30 974.0
20260503053445 108 0 0.0 0.0 0.00 0.00 0.00 28 974.0
20260503052419 107 0 0.0 0.0 0.00 0.00 0.00 29 974.0
20260503051352 108 0 0.0 0.0 0.00 0.00 0.00 28 974.0
20260503050325 106 0 0.0 0.0 0.00 0.00 0.00 30 974.0
20260503045259 106 0 0.0 0.0 0.00 0.00 0.00 29 975.0
20260503044234 106 0 0.0 0.0 0.00 0.00 0.00 30 975.0
20260503043209 105 0 0.0 0.0 0.00 0.00 0.00 30 975.0
20260503042145 103 0 0.0 0.0 0.00 0.00 0.00 32 975.0